This demonstration page uses our WeatherBlox Daily Observations layout. Learn more.

Left ArrowRight Arrow

44.31136, -96.79839

Hourly Observations for August 11, 2022

Temp ( °F °C ) Dew Point ( °F °C ) Humidity (%) Winds ( mph kmh ) Pressure ( in mb ) Visibility ( mi km ) Precip ( " mm )
12:56 am 00:56 Clear 70 21.1 63 17.2 78 78 E 12 19 30.21 1023 10 16 0.00 0.00
1:56 am 01:56 Clear 69 20.6 62 16.7 78 78 E 9 15 30.22 1023 10 16 0.00 0.00
2:56 am 02:56 Clear 68 20 60 15.6 76 76 ESE 10 17 30.21 1023 10 16 0.00 0.00
3:45 am 03:45 Mostly Cloudy 68 20 59 15 73 73 E 9 15 30.16 1021 10 16 0.00 0.00
3:56 am 03:56 Mostly Cloudy 68 20 59 15 73 73 E 12 19 30.21 1023 10 16 0.00 0.00
4:10 am 04:10 Mostly Clear 68 20 59 15 73 73 E 12 19 30.15 1021 10 16 0.00 0.00
4:56 am 04:56 Partly Cloudy 68 20 57 13.9 68 68 E 14 22 30.19 1023 10 16 0.00 0.00
5:56 am 05:56 Cloudy 67 19.4 58 14.4 73 73 E 8 13 30.20 1023 10 16 0.00 0.00
6:56 am 06:56 Sunny 67 19.4 57 13.9 71 71 E 12 19 30.18 1022 10 16 0.00 0.00
7:56 am 07:56 Partly Cloudy 68 20 57 13.9 68 68 E 12 19 30.19 1022 10 16 0.00 0.00
8:56 am 08:56 Sunny 69 20.6 57 13.9 65 65 E 15 24 30.20 1023 10 16 0.00 0.00
9:56 am 09:56 Sunny 70 21.1 59 15 68 68 ESE 15 24 30.19 1022 10 16 0.00 0.00
10:56 am 10:56 Sunny 75 23.9 60 15.6 60 60 ESE 17 28 30.16 1021 10 16 0.00 0.00
11:56 am 11:56 Sunny 71 21.7 63 17.2 76 76 E 8 13 30.18 1022 10 16 0.00 0.00
12:56 pm 12:56 Mostly Sunny 71 21.7 64 17.8 79 79 E 14 22 30.17 1022 10 16 0.00 0.00
1:56 pm 13:56 Partly Cloudy 74 23.3 65 18.3 74 74 E 12 19 30.19 1022 10 16 0.00 0.00
2:56 pm 14:56 Sunny 75 23.9 65 18.3 71 71 ESE 16 26 30.15 1021 10 16 0.00 0.00
3:56 pm 15:56 Sunny 78 25.6 66 18.9 67 67 ESE 15 24 30.13 1020 10 16 0.00 0.00
4:56 pm 16:56 Sunny 76 24.4 68 20 77 77 E 13 20 30.13 1020 10 16 0.00 0.00
5:56 pm 17:56 Sunny 77 25 67 19.4 71 71 E 15 24 30.14 1021 10 16 0.00 0.00
6:56 pm 18:56 Sunny 73 22.8 67 19.4 81 81 E 15 24 30.13 1020 10 16 0.00 0.00
7:56 pm 19:56 Sunny 70 21.1 67 19.4 90 90 E 13 20 30.12 1020 10 16 0.00 0.00
8:56 pm 20:56 Clear 69 20.6 67 19.4 93 93 ESE 16 26 30.11 1020 10 16 0.00 0.00
9:56 pm 21:56 Clear 68 20 65 18.3 90 90 ESE 17 28 30.11 1020 10 16 0.00 0.00
10:56 pm 22:56 Clear 67 19.4 66 18.9 97 97 SE 17 28 30.10 1019 10 16 0.00 0.00
11:56 pm 23:56 Clear 67 19.4 66 18.9 97 97 SE 21 33 30.09 1019 10 16 0.00 0.00

Powered by AerisWeather